[[{"header":{"parameterUnit":"m.s-1","parameterCategory":1,"la1":30.2991,"la2":30.254,"lo1":-89.0895,"lo2":-89.0444,"dy":0.0017,"dx":0.0017,"nx":28,"ny":28,"refTime":"2024-06-11T03:00:00:Z","depth":0,"parameterNumber":2,"parameterNumberName":"U-component_of_WINDS"},"data":[0,0,0,0,0,0,0,0,0,0,0,0,0,0,0,0,0,0,0,0,0,0,0,0,0,0,0,0,0,0,0,0,0,0,0,0,0,0,0,0,0,0,0,0,0,0,0,0,0,0,0,0,0,0,0,0,0,0,3.2261,3.2261,0,3.2227,3.2227,3.2227,3.2089,3.2086,3.2083,3.208,3.2052,3.2054,3.2056,0,0,0,0,0,0,0,0,0,0,0,0,0,3.2211,3.2213,3.2261,3.226,3.226,3.2228,3.2227,3.2227,3.209,3.2086,3.2082,3.2079,3.2051,3.2054,3.2056,0,0,0,0,0,0,0,0,0,0,0,0,0,3.2211,3.2213,3.2261,3.2188,3.2181,3.2228,3.2227,3.2227,3.2091,3.2086,3.2081,3.2077,3.205,3.2054,3.2057,3.2173,0,0,3.2067,3.2069,0,0,0,0,0,0,0,0,3.2211,3.2213,3.2199,3.2193,3.2185,3.2157,3.2199,3.2209,3.2092,3.2125,3.208,3.2074,3.2091,3.2091,3.2095,3.2172,3.2171,3.2067,3.2069,3.2071,3.2072,0,0,0,0,0,0,0,3.2211,3.2214,3.2248,3.2199,3.2191,3.2158,3.2153,3.22,3.2136,3.2122,3.2112,3.2109,3.2087,3.2093,3.2094,3.217,3.2067,3.207,3.2072,3.2074,3.2338,3.2343,0,0,0,0,0,0,3.2221,3.2215,3.2249,3.2247,3.2186,3.2163,3.2157,3.2171,3.2135,3.2124,3.2114,3.2103,3.2089,3.209,3.2092,3.2222,3.2071,3.2074,3.2076,3.2333,3.2339,3.2345,0,0,0,0,0,0,3.2221,3.2225,3.225,3.2228,3.2229,3.2169,3.2186,3.2173,3.2179,3.2128,3.2117,3.2131,3.2085,3.2088,3.2153,3.222,3.2075,3.2078,3.2327,3.2335,3.2342,3.2487,0,0,0,0,0,0,3.222,3.2226,3.2268,3.223,3.223,3.231,3.219,3.2176,3.2184,3.217,3.2142,3.2132,3.2082,3.2149,3.2156,3.2222,3.2081,3.2321,3.2331,3.2339,3.2476,3.2498,3.2518,0,0,0,0,0,3.2218,3.2313,3.2271,3.2276,3.2282,3.2314,3.2315,3.2253,3.219,3.2232,3.22,3.2133,3.2213,3.2157,3.2164,3.2232,3.2316,3.2328,3.2339,3.2466,3.2494,3.2517,0,0,0,0,0,0,3.2363,3.2306,3.226,3.2344,3.2335,3.2291,3.2342,3.2285,3.2295,3.2281,3.2207,3.2201,3.2277,3.2262,3.2201,3.2341,3.2253,3.2266,3.2347,3.2373,3.2394,3.2394,3.2084,0,0,0,0,0,3.2405,3.2434,3.2384,3.2463,3.2461,3.2403,3.2415,3.2368,3.2356,3.2352,3.2325,3.2317,3.234,3.2357,3.2375,3.2475,3.2465,3.2525,3.2546,3.2563,3.2574,3.2623,3.2648,3.2382,3.2382,3.2381,0,0,3.2491,3.2463,3.2487,3.2491,3.2478,3.2511,3.2401,3.2441,3.2464,3.2359,3.2416,3.2397,3.2384,3.2466,3.2501,3.2456,3.2646,3.2578,3.2592,3.2593,3.2637,3.2662,3.2684,3.2389,3.2388,3.2387,0,0,3.2663,3.2647,3.2709,3.2698,3.2679,3.264,3.2656,3.2621,3.2602,3.266,3.258,3.2609,3.2651,3.2643,3.2645,3.2816,3.2753,3.2825,3.2933,3.2981,3.3001,3.3019,3.3076,3.3098,3.2837,3.2837,3.2837,0,3.2772,3.2816,3.2749,3.2793,3.2796,3.2701,3.2763,3.2757,3.2747,3.2752,3.2702,3.275,3.2735,3.2812,3.2853,3.286,3.2874,3.2825,3.3004,3.3021,3.3037,3.309,3.3113,3.2845,3.2845,3.2844,3.2843,0,3.295,3.2983,3.3036,3.3024,3.3035,3.3089,3.303,3.3049,3.3002,3.2969,3.3028,3.3007,3.3018,3.3034,3.299,3.3105,3.3076,3.3017,3.2925,3.3072,3.312,3.3141,3.2857,3.2854,3.2852,3.285,0,0,3.321,3.316,3.318,3.3172,3.3145,3.3169,3.322,3.3228,3.3244,3.3242,3.328,3.3318,3.3261,3.3264,3.3218,3.3261,3.3393,3.3195,3.3194,3.3229,3.3514,3.3556,3.3581,3.3353,3.3357,3.336,3.3514,0,3.337,3.3448,3.3389,3.3478,3.3506,3.3417,3.346,3.3449,3.342,3.3441,3.341,3.3435,3.3361,3.3361,3.34,3.3369,3.3448,3.3358,3.3387,3.3389,3.3388,3.3607,3.3652,3.3797,3.3533,3.3536,3.3539,0,3.3566,3.3568,3.366,3.3624,3.3634,3.3673,3.3675,3.3697,3.3683,3.3659,3.3661,3.3605,3.3652,3.3566,3.3629,3.3568,3.3578,3.3565,3.3569,3.3565,3.3469,3.3605,3.3843,3.3863,3.3569,3.3566,3.3564,0,3.374,3.3767,3.3824,3.3821,3.3783,3.3812,3.3798,3.3779,3.3787,3.3791,3.3795,3.3806,3.3811,3.382,3.3768,3.3711,3.3837,3.3748,3.3817,3.3818,3.3844,3.3842,3.4082,3.3859,3.3858,3.3858,3.3857,0,3.3922,3.3981,3.3901,3.3935,3.3998,3.3931,3.3996,3.3973,3.3957,3.3986,3.3913,3.3942,3.3874,3.3897,3.3857,3.3913,3.3918,3.3899,3.3887,3.3903,3.3904,3.3904,3.3891,3.3864,3.3862,3.3861,3.386,0,3.4125,3.4074,3.4129,3.4089,3.408,3.4128,3.4093,3.4124,3.4091,3.4128,3.4134,3.4082,3.4105,3.4055,3.4073,3.4046,3.4124,3.4099,3.4128,3.4118,3.4189,3.4181,3.4433,3.4461,3.4225,3.4227,3.4229,0,3.4242,3.4284,3.4247,3.4259,3.4248,3.4272,3.4279,3.4216,3.4227,3.4214,3.4246,3.4263,3.4271,3.4313,3.4278,3.429,3.4261,3.4349,3.4263,3.4276,3.4257,3.4253,3.4256,3.4365,3.4368,3.4371,3.4373,0,3.4453,3.4426,3.4438,3.4441,3.4452,3.4452,3.4448,3.4464,3.4396,3.4413,3.4434,3.4441,3.4457,3.4474,3.4478,3.4465,3.4407,3.4401,3.4416,3.4431,3.4444,3.4433,3.4171,3.4394,3.4392,3.439,3.4389,3.4388,3.4613,3.4645,3.4623,3.4638,3.4628,3.4626,3.4651,3.4621,3.4637,3.4642,3.4606,3.4635,3.462,3.4619,3.4612,3.4634,3.4595,3.4619,3.4624,3.463,3.4639,3.4444,3.4636,3.4635,3.4635,3.4634,3.4634,0,3.4816,3.4797,3.4813,3.4807,3.482,3.4765,3.4757,3.4771,3.4797,3.4787,3.4797,3.4821,3.4837,3.4803,3.4814,3.4838,3.4812,3.4843,3.4838,3.4835,3.4676,3.4659,3.4863,3.4863,3.4863,3.4863,3.4863,3.4863,3.4922,3.4972,3.4943,3.4988,3.4969,3.4994,3.4994,3.4992,3.4983,3.5012,3.5024,3.5002,3.4982,3.4991,3.5003,3.4993,3.4999,3.5038,3.5019,3.487,3.4847,3.4825,3.4808,3.5041,3.5041,3.5175,3.5176,3.5177]},{"header":{"parameterUnit":"m.s-1","parameterCategory":1,"la1":30.2991,"la2":30.254,"lo1":-89.0895,"lo2":-89.0444,"dy":0.0017,"dx":0.0017,"nx":28,"ny":28,"refTime":"2024-06-11T03:00:00:Z","depth":0,"parameterNumber":3,"parameterNumberName":"V-component_of_WINDS"},"data":[0,0,0,0,0,0,0,0,0,0,0,0,0,0,0,0,0,0,0,0,0,0,0,0,0,0,0,0,0,0,0,0,0,0,0,0,0,0,0,0,0,0,0,0,0,0,0,0,0,0,0,0,0,0,0,0,0,0,5.1296,5.1297,0,5.1384,5.1385,5.1386,5.138,5.1379,5.1378,5.1377,5.1457,5.146,5.1464,0,0,0,0,0,0,0,0,0,0,0,0,0,5.111,5.1114,5.1296,5.1297,5.1298,5.1384,5.1385,5.1386,5.1381,5.1379,5.1377,5.1376,5.1456,5.146,5.1464,0,0,0,0,0,0,0,0,0,0,0,0,0,5.1194,5.1115,5.1296,5.1306,5.1308,5.1383,5.1385,5.1386,5.1381,5.1379,5.1377,5.1375,5.1455,5.146,5.1465,5.1533,0,0,5.148,5.1482,0,0,0,0,0,0,0,0,5.1189,5.12,5.1303,5.1305,5.1307,5.1369,5.1349,5.1435,5.1381,5.1353,5.1377,5.1374,5.1429,5.1436,5.1456,5.1537,5.154,5.148,5.1483,5.1485,5.1487,0,0,0,0,0,0,0,5.1183,5.1197,5.133,5.1305,5.1307,5.1302,5.1312,5.1365,5.14,5.1355,5.1355,5.1366,5.143,5.1451,5.1458,5.1541,5.148,5.1485,5.1488,5.149,5.1676,5.1678,0,0,0,0,0,0,5.1177,5.1192,5.1327,5.1333,5.1243,5.1307,5.1318,5.1351,5.14,5.1405,5.1367,5.1365,5.1444,5.1452,5.1461,5.154,5.1485,5.149,5.1493,5.1674,5.1676,5.1678,0,0,0,0,0,0,5.1173,5.1189,5.1324,5.1262,5.1279,5.1312,5.135,5.1354,5.1376,5.1409,5.1414,5.1384,5.1443,5.1454,5.1514,5.1543,5.1492,5.1497,5.1672,5.1675,5.1677,5.1701,0,0,0,0,0,0,5.1168,5.1188,5.1217,5.1263,5.1283,5.138,5.1352,5.1357,5.1386,5.1384,5.1426,5.1431,5.1442,5.1507,5.1519,5.1549,5.1501,5.1669,5.1673,5.1676,5.1698,5.1705,5.171,0,0,0,0,0,5.1161,5.122,5.1219,5.1235,5.1321,5.1382,5.1392,5.1406,5.1388,5.1415,5.1436,5.143,5.1538,5.1513,5.1527,5.1558,5.1667,5.1672,5.1676,5.1695,5.1703,5.171,0,0,0,0,0,0,5.1174,5.1226,5.1226,5.1302,5.1338,5.1381,5.1416,5.1415,5.1455,5.1451,5.1464,5.1473,5.1533,5.1552,5.1523,5.1624,5.16,5.1607,5.1609,5.1617,5.1623,5.1616,5.1505,0,0,0,0,0,5.1186,5.1235,5.1276,5.1339,5.1357,5.1384,5.1411,5.1418,5.1454,5.1469,5.1494,5.1526,5.1567,5.1594,5.1634,5.1701,5.1707,5.1729,5.1735,5.174,5.1745,5.1777,5.1786,5.1693,5.1693,5.1693,0,0,5.1211,5.1245,5.1275,5.1342,5.1371,5.1416,5.1396,5.1446,5.1478,5.1475,5.1534,5.1553,5.1589,5.1653,5.1682,5.167,5.1772,5.1746,5.1749,5.1752,5.1782,5.1791,5.1799,5.1696,5.1695,5.1695,0,0,5.1278,5.1312,5.1365,5.1394,5.1438,5.1455,5.1467,5.151,5.1523,5.1583,5.158,5.1616,5.1688,5.1713,5.1735,5.1807,5.1801,5.182,5.1851,5.1881,5.1889,5.1895,5.1916,5.1925,5.1825,5.1825,5.1825,0,5.1302,5.1374,5.1392,5.1442,5.1469,5.147,5.1521,5.1547,5.1601,5.1617,5.1605,5.1692,5.1717,5.1783,5.1801,5.182,5.1831,5.1814,5.1887,5.1893,5.19,5.192,5.1929,5.1827,5.1827,5.1827,5.1827,0,5.1399,5.1448,5.1486,5.1539,5.157,5.1621,5.1641,5.167,5.1674,5.1691,5.1748,5.1778,5.1822,5.1838,5.1843,5.1904,5.1895,5.1885,5.186,5.191,5.1929,5.1937,5.1829,5.1829,5.1828,5.1828,0,0,5.1477,5.1538,5.1551,5.1573,5.162,5.1656,5.1704,5.1749,5.1771,5.1807,5.1844,5.1903,5.1893,5.1918,5.1924,5.1952,5.2001,5.1937,5.1938,5.1945,5.2065,5.207,5.2079,5.1999,5.2,5.2002,5.206,0,5.1546,5.1634,5.1649,5.1724,5.1767,5.1767,5.1807,5.1838,5.1854,5.1889,5.1905,5.1945,5.1931,5.1945,5.1973,5.199,5.2025,5.1986,5.2028,5.203,5.2016,5.209,5.2097,5.2151,5.2068,5.207,5.2071,0,5.1639,5.1678,5.1758,5.1795,5.1813,5.185,5.1889,5.1925,5.1958,5.1967,5.1993,5.1996,5.204,5.2015,5.2074,5.2047,5.2065,5.2075,5.2078,5.208,5.2051,5.209,5.2169,5.2175,5.2084,5.2083,5.2082,0,5.1682,5.1755,5.1811,5.183,5.1876,5.1901,5.192,5.1952,5.1976,5.201,5.2025,5.2063,5.2083,5.211,5.2121,5.2103,5.2177,5.2154,5.2181,5.2181,5.2195,5.2193,5.2274,5.2213,5.2212,5.2212,5.2212,0,5.1755,5.1802,5.183,5.1864,5.1915,5.193,5.1979,5.1998,5.2025,5.2059,5.2061,5.2092,5.2107,5.2139,5.2147,5.2192,5.2202,5.2207,5.2208,5.2205,5.2204,5.2215,5.221,5.2214,5.2214,5.2213,5.2213,0,5.1811,5.1833,5.1892,5.1931,5.1941,5.1977,5.2008,5.2038,5.2053,5.2096,5.2106,5.2129,5.2167,5.2181,5.2227,5.2232,5.2282,5.2282,5.2271,5.2271,5.2296,5.2292,5.2384,5.2395,5.2329,5.233,5.233,0,5.1855,5.1891,5.1933,5.1957,5.1978,5.2017,5.2042,5.2057,5.2082,5.212,5.2145,5.2183,5.2214,5.2273,5.2291,5.2325,5.2323,5.2353,5.2328,5.2322,5.2318,5.2315,5.2316,5.2356,5.2357,5.2357,5.2358,0,5.1928,5.1936,5.1974,5.2014,5.2044,5.2076,5.2106,5.2125,5.2143,5.2171,5.221,5.2234,5.2281,5.2316,5.2351,5.2367,5.2363,5.2366,5.2373,5.2369,5.236,5.2361,5.228,5.2363,5.2363,5.2362,5.2362,5.2362,5.1977,5.2007,5.2041,5.2081,5.2106,5.2134,5.2163,5.2182,5.2216,5.2256,5.2262,5.2303,5.233,5.2376,5.2393,5.2423,5.2414,5.2426,5.2428,5.243,5.243,5.2358,5.2429,5.2429,5.2429,5.2429,5.2429,0,5.2047,5.2068,5.2105,5.2148,5.2178,5.2176,5.2209,5.2233,5.227,5.2297,5.2327,5.237,5.2404,5.2425,5.2458,5.2477,5.2476,5.2485,5.2482,5.2485,5.2438,5.2426,5.2485,5.2485,5.2485,5.2485,5.2485,5.2485,5.2086,5.2137,5.2148,5.2208,5.2228,5.227,5.2288,5.2312,5.2334,5.2382,5.2411,5.2425,5.2448,5.2483,5.2512,5.2517,5.2527,5.2536,5.254,5.2495,5.2489,5.2483,5.2472,5.2539,5.2539,5.2584,5.2584,5.2585]}]]